Weather Roundup
Issued by NWS

Home | Current Version | Previous Version | Text Only | Print | Product List | Glossary On
Versions: 1 2 3 4 5 6 7 8 9 10 11 12 13 14 15 16 17 18 19 20 21 22 23 24 25 26 27 28 29 30 31 32 33 34 35 36 37 38 39 40 41 42 43 44 45 46 47 48 49 50
000
CXUS53 KTOP 250610
HRRKS

...ACROSS KANSAS...

100 AM CDT MON MAY 25 2020
WESTERN KANSAS

CITY           SKY/WX    TMP DP  RH WIND       PRES   REMARKS
GOODLAND       CLOUDY    50  46  86 N22G33    29.97R
HILL CITY      LGT RAIN  62  60  93 SW7       29.85R
DODGE CITY     TSTM      61  56  83 NW9       29.88R
GARDEN CITY    CLOUDY    55  48  77 N24G39    29.89R
LIBERAL        FAIR      56  48  74 N26G33    29.87R
ELKHART        LGT RAIN  56  49  79 NW21G28   29.94R
HAYS           LGT RAIN  61  61 100 SE9       29.84R
RUSSELL        LGT RAIN  60  57  89 NW3       29.83R
MEDICINE LDG     N/A     65  57  75 S6        29.80R

CENTRAL KANSAS

CITY           SKY/WX    TMP DP  RH WIND       PRES   REMARKS
GREAT BEND     TSTM      61  59  94 NE23      29.85R
CONCORDIA      TSTM      66  61  84 SE10      29.82R
SALINA         LGT RAIN  62  59  90 N10       29.81F
HUTCHISON      LGT RAIN  74  62  66 S21G40    29.80R
NEWTON         CLOUDY    73  66  78 S26G32    29.80R
WICHITA        CLOUDY    73  61  65 SW26G45   29.82R
WINFIELD       FAIR      72  63  73 S13       29.84R

EASTERN KANSAS

CITY           SKY/WX    TMP DP  RH WIND       PRES   REMARKS
MARYSVILLE     CLOUDY    64  63  94 E5        29.82R
MANHATTAN      TSTM      65  64  97 E14G23    29.78F FOG
TOPEKA         TSTM      69  63  81 NE5       29.78S
FORBES         TSTM      70  68  93 SE18G25   29.79R FOG
OLATHE IND     FAIR      72  66  81 SE8       29.81S
LAWRENCE       MOCLDY    69  64  84 E5        29.79F THUNDER
OTTAWA         CLOUDY    72  70  94 SE12      29.79F
EMPORIA        FAIR      73  70  90 S15G25    29.78S
IOLA           MOCLDY    71  65  83 SE9G16    29.83R
CHANUTE        MOCLDY    73  67  81 S10       29.82R

...ADJACENT STATES...


CITY           SKY/WX    TMP DP  RH WIND       PRES   REMARKS
KCI AIRPORT    MOCLDY    69  65  86 SE12      29.82R
ST JOSEPH      FAIR      63  62  97 CALM      29.81R
FALLS CITY     FAIR      63  61  93 N5        29.81R
BEATRICE       CLOUDY    62  61  97 N8        29.85R
OMAHA          CLOUDY    64  63  96 W6        29.82F
LINCOLN        LGT RAIN  64  61  90 E5        29.86R
GRAND ISLAND   LGT RAIN  64  58  80 N10       29.87R
NORTH PLATTE   MOCLDY    60  49  66 NE12      29.94R
SCOTTSBLUFF    FAIR      48  43  82 NW6       30.08R
CHEYENNE       MOCLDY    43  34  70 N6        30.12R


CITY           SKY/WX    TMP DP  RH WIND       PRES   REMARKS
DENVER         FAIR      44  41  89 W8        30.10F
COLO SPRINGS   MOCLDY    43  38  82 NW15G29   30.10F
RAPID CITY     FAIR      43  41  93 N9        30.06S
AMARILLO       MOCLDY    60  51  72 E21G29    29.84R
OKLA CITY      CLOUDY    65  59  81 W8        29.86S
TULSA          CLOUDY    71  62  73 CALM      29.81R
LITTLE ROCK    MOCLDY    71  67  87 E7        29.88R
SPRINGFIELD    FAIR      68  65  90 SE9       29.85S
COLUMBIA       FAIR      66  63  90 SE9       29.87S


CITY           SKY/WX    TMP DP  RH WIND       PRES   REMARKS
ST LOUIS       MOCLDY    67  63  87 NE6       29.88F
DES MOINES     CLOUDY    65  64  97 S8        29.79F
BISMARK        CLOUDY    53  48  83 NW10      29.99R
BURLINGTON KS  MOCLDY    71  68  91 S10       29.80F
FORT SCOTT     CLEAR     70  66  88 SE6       29.82R
HEBRON         CLOUDY    64  61  90 E10       29.82R
COFFEYVILLE    FAIR      71  67  87 S6        29.81R



USA.gov is the U.S. government's official web portal to all federal, state and local government web resources and services.
  • National Weather Service
  • El Paso, TX Weather Forecast Office
  • 7955 Airport Rd
  • Santa Teresa, NM 88008
  • (575) 589-4088
  • Page Author: EPZ Webmaster
  • Web Master's E-mail: sr-epz.webmaster@noaa.gov
  • Page last modified: Mar 10th, 2020 21:02 UTC